Terminal Aerodrome Forecast
Issued by NWS Wilmington, OH

Current Version | Previous Version | Graphics & Text | Print | Product List | Glossary On
Versions: 1 2 3 4 5 6 7 8 9 10 11 12 13 14 15 16 17 18 19 20 21 22 23 24 25 26 27 28 29 30 31 32 33
000
FTUS41 KILN 240259 AAE
TAFILN
TAF AMD
KILN 240259Z 2403/2424 24007KT 4SM -RA BR FEW004 OVC014
     FM240600 32005KT 4SM BR SCT015 BKN250
     FM241300 28009KT P6SM SCT250
     FM241700 28012G20KT P6SM SCT090=

USA.gov is the U.S. government's official web portal to all federal, state and local government web resources and services.